TimeCDT,TemperatureF,Dew PointF,Humidity,Sea Level PressureIn,VisibilityMPH,Wind Direction,Wind SpeedMPH,Gust SpeedMPH,PrecipitationIn,Events,Conditions,WindDirDegrees,DateUTC
12:53 AM,60.1,54.0,80,30.03,10.0,SSE,6.9,-,N/A,,Clear,160,2012-10-04 05:53:00
1:53 AM,59.0,55.0,87,30.04,10.0,SSE,6.9,-,N/A,,Clear,160,2012-10-04 06:53:00
2:53 AM,57.9,55.0,90,30.04,10.0,South,5.8,-,N/A,,Clear,170,2012-10-04 07:53:00
3:53 AM,60.1,55.9,86,30.04,10.0,SSE,5.8,-,N/A,,Clear,150,2012-10-04 08:53:00
4:53 AM,57.9,55.0,90,30.06,10.0,South,5.8,-,N/A,,Clear,170,2012-10-04 09:53:00
5:53 AM,57.9,55.9,93,30.08,10.0,South,6.9,-,N/A,,Clear,170,2012-10-04 10:53:00
6:53 AM,57.0,55.0,93,30.12,10.0,South,4.6,-,N/A,,Clear,180,2012-10-04 11:53:00
7:53 AM,57.9,55.9,93,30.15,10.0,SSE,4.6,-,N/A,,Clear,160,2012-10-04 12:53:00
8:53 AM,64.0,57.9,80,30.16,10.0,SSE,8.1,-,N/A,,Clear,150,2012-10-04 13:53:00
9:53 AM,69.1,59.0,70,30.16,10.0,SSE,8.1,-,N/A,,Clear,150,2012-10-04 14:53:00
10:53 AM,73.9,60.1,62,30.15,10.0,South,13.8,-,N/A,,Clear,170,2012-10-04 15:53:00
11:53 AM,78.1,61.0,56,30.14,10.0,South,13.8,-,N/A,,Clear,180,2012-10-04 16:53:00
12:53 PM,81.0,60.1,49,30.13,10.0,South,13.8,-,N/A,,Clear,180,2012-10-04 17:53:00
1:53 PM,82.9,61.0,47,30.11,10.0,South,10.4,-,N/A,,Clear,170,2012-10-04 18:53:00
2:53 PM,84.0,61.0,46,30.09,10.0,South,10.4,-,N/A,,Partly Cloudy,190,2012-10-04 19:53:00
3:53 PM,82.0,60.1,47,30.08,10.0,SSW,3.5,-,N/A,,Scattered Clouds,200,2012-10-04 20:53:00
4:53 PM,81.0,61.0,50,30.07,10.0,WSW,6.9,-,N/A,,Mostly Cloudy,250,2012-10-04 21:53:00
5:53 PM,80.1,63.0,56,30.07,10.0,SW,3.5,-,N/A,,Overcast,220,2012-10-04 22:53:00
6:53 PM,73.9,60.1,62,30.07,10.0,North,6.9,-,N/A,,Mostly Cloudy,10,2012-10-04 23:53:00
7:53 PM,72.0,59.0,64,30.09,10.0,NNW,9.2,-,N/A,,Overcast,340,2012-10-05 00:53:00
8:53 PM,69.1,55.0,61,30.12,10.0,North,19.6,-,N/A,,Overcast,360,2012-10-05 01:53:00
9:53 PM,66.0,54.0,65,30.12,10.0,North,13.8,-,N/A,,Overcast,350,2012-10-05 02:53:00
10:53 PM,64.9,53.1,65,30.13,10.0,North,13.8,-,N/A,,Overcast,350,2012-10-05 03:53:00
11:53 PM,64.0,52.0,65,30.12,10.0,North,10.4,-,N/A,,Overcast,360,2012-10-05 04:53:00